Zurück zum Katalog

STARLINK-4635

AktivKommunikationVLEO
NORAD 53966·PAYLOAD·🇺🇸 United States

Gestartet Oct 5, 2022 von Vandenberg Space Force Base

Loading…

Nächste Überflüge (nächste 24 Stunden)

TLE

AktuellSource: CelesTrak SupGP

Epoche: Sep 14, 2026, 21:17 UTC

1 53966C 22125C   26257.88729167  .00017204  00000+0  49263-3 0  2578
2 53966  53.1579  87.8726 0001083  84.8625 294.2295 15.35364903    17

Verfolge STARLINK-4635 in Echtzeit mit AllMySat

Download on the App Store